Tracking 25707 objects as of 30-Jun-2022
HD Live streaming from Space Station
objects crossing your sky now

NSAT 110

Track NSAT 110 now!
NSAT 110 is classified as:


NORAD ID: 26559
Int'l Code: 2000-060A
Perigee: 36,068.1 km
Apogee: 36,134.1 km
Inclination: 3.1 °
Period: 1,451.8 minutes
Semi major axis: 42472 km
RCS: 12.5892 m2 (large)
Launch date: October 6, 2000
Source: Japan (JPN)
Launch site: FRENCH GUIANA (FRGUI)

24 Ku-band; voice and video communications to Japan.
aabbcc
Your satellite tracking list
Your tracking list is empty




NASA's NSSDC Master Catalog

Two Line Element Set (TLE):
1 26559U 00060A   22180.58809103 -.00000175  00000-0  00000-0 0  9994
2 26559   3.0874  86.6900 0007765 353.6832 223.2827  0.99185385 79454
Source of the keplerian elements: AFSPC